Wind_Speed
34 35 38 38 33 27 27 28 29 30 30 29 27 26 25 23 21 22 24 26 28 29 30 29 28 27 26 26 26 26 26 26 26 25 26 26 26 26 25 25 26 27 27 27 26 26 26 27 27 26 25 26 27 26 27 26 26 27 27 28 29 29 31 33 38 47 45 37 37 37 35 36 37 37 36 36 36 37 38 39 37 35 33 32 31
35 37 39 36 31 27 27 28 29 30 30 29 27 25 24 24 23 23 25 26 28 29 29 29 28 28 27 27 26 26 26 26 26 26 27 27 27 27 26 26 27 27 28 28 27 26 27 27 28 27 25 27 27 27 27 27 26 28 27 28 30 29 30 32 35 42 46 41 37 38 36 35 37 38 36 37 37 36 37 39 40 41 41 40 39
36 38 38 34 29 28 27 28 29 30 31 30 28 25 25 25 25 26 26 27 28 28 28 29 29 28 28 28 27 27 27 26 26 26 27 28 29 29 28 27 28 28 28 29 28 27 27 28 28 27 26 27 28 28 28 28 27 28 28 27 29 30 28 30 32 36 42 42 38 38 38 35 36 37 35 36 37 35 34 35 34 36 38 39 41
38 38 36 31 29 29 28 28 29 30 31 30 28 26 26 26 27 27 27 27 27 28 28 29 29 28 28 28 29 28 28 28 28 28 27 28 28 29 29 28 28 29 29 29 28 27 27 28 28 28 27 28 29 28 28 28 28 27 28 27 27 28 28 27 29 31 35 39 37 35 33 32 34 35 33 34 36 35 36 37 36 36 36 36 37
39 37 33 30 30 30 29 29 29 30 30 30 29 28 27 27 27 28 27 27 28 28 29 29 28 28 28 28 29 29 29 30 30 30 30 29 29 29 29 29 28 28 29 28 28 28 28 29 28 28 28 29 29 29 28 28 27 27 27 27 26 27 26 26 26 27 29 34 36 34 32 31 33 34 32 31 33 33 33 35 36 37 39 39 39
37 34 30 30 31 31 30 29 29 29 30 30 30 29 28 28 28 28 28 28 29 30 29 29 28 28 28 29 29 29 30 30 30 31 31 30 30 30 29 29 28 28 27 27 27 28 28 29 29 29 29 29 30 29 28 27 26 26 26 26 26 26 27 26 27 28 29 33 36 35 33 31 31 33 32 29 28 28 28 29 29 30 31 33 36
33 30 30 31 31 31 30 29 29 30 31 31 30 29 28 28 28 29 29 30 30 30 29 29 28 29 29 30 30 30 30 30 31 31 31 31 31 31 30 29 28 27 27 27 27 28 29 29 30 30 29 30 29 28 27 26 26 26 25 26 25 26 28 28 28 29 30 32 34 34 31 28 27 29 30 26 24 26 26 27 29 29 28 29 31
30 29 30 31 31 31 30 30 30 30 29 29 28 28 28 28 29 30 30 31 30 30 29 30 30 30 31 31 31 31 32 32 31 31 31 31 30 30 30 28 28 28 28 29 29 28 29 29 30 31 30 30 29 28 27 27 27 28 27 26 26 27 28 29 30 31 31 32 35 35 32 28 27 28 27 24 24 27 25 24 27 28 27 28 30
29 30 30 31 31 30 30 31 31 29 28 28 28 28 28 28 29 29 30 30 29 29 29 30 31 32 32 32 32 32 32 32 32 31 31 31 31 31 30 29 29 31 31 32 31 30 31 31 31 31 31 31 31 30 29 28 28 30 29 28 28 28 29 30 31 32 32 32 34 35 34 33 33 31 30 28 28 29 26 24 27 27 25 25 26
30 30 30 30 30 31 31 32 31 30 30 29 29 28 28 28 29 29 29 30 29 30 30 31 32 33 33 33 33 33 33 32 32 31 30 30 30 31 31 31 30 32 33 34 34 33 33 33 32 32 32 32 32 31 30 29 29 30 31 32 32 33 35 35 35 35 35 35 36 37 37 39 39 36 35 34 32 31 30 29 30 29 26 26 28
31 30 30 30 30 31 32 31 31 31 31 30 29 28 29 29 30 30 30 30 30 31 32 32 33 33 33 34 34 33 33 32 31 31 29 28 27 29 31 31 30 32 33 33 33 34 34 34 34 34 34 34 33 32 31 31 31 32 33 34 35 36 37 39 40 40 39 40 41 40 40 42 41 39 38 37 34 33 33 32 31 31 30 30 32
31 30 30 30 31 32 31 30 30 31 30 29 28 29 30 31 31 32 32 31 31 32 32 33 33 33 33 34 33 33 33 32 31 31 29 27 26 27 29 29 30 32 32 32 33 34 35 36 37 37 37 36 35 34 33 32 32 32 32 34 35 35 36 38 40 42 41 42 44 44 44 44 44 42 41 39 37 37 37 35 34 35 35 35 36
30 31 31 31 31 30 29 29 30 30 29 28 28 29 30 31 32 32 32 32 32 33 33 33 33 33 33 33 34 33 33 32 31 30 28 26 26 27 28 29 30 31 32 33 34 35 36 37 38 39 38 37 35 34 33 32 32 32 32 33 34 35 35 36 37 40 41 42 43 44 44 44 44 43 40 38 37 38 38 38 38 38 39 39 40
30 31 31 30 29 28 28 29 29 29 28 28 29 30 31 31 32 32 32 32 32 32 33 33 33 33 33 33 34 34 33 32 31 29 28 26 26 27 28 29 30 32 33 33 35 35 35 36 37 37 37 36 34 33 32 32 31 31 31 32 33 34 34 34 34 36 38 39 41 43 43 42 42 43 40 37 38 39 40 41 40 40 41 41 41
31 32 31 29 27 28 29 30 29 29 28 29 30 30 31 31 31 31 31 31 32 32 33 33 33 33 33 33 34 35 33 31 30 29 27 26 26 26 28 29 31 32 33 34 34 34 34 33 33 34 35 35 33 32 31 31 31 31 32 33 34 34 35 35 34 34 34 35 37 39 40 40 41 41 39 37 38 40 41 41 42 42 43 43 42
32 32 30 28 28 29 30 31 30 30 29 30 31 31 31 31 31 31 32 32 32 33 33 34 34 34 34 34 34 35 33 31 30 29 27 26 25 26 28 29 30 32 33 33 32 32 32 31 31 32 33 33 33 31 30 30 31 33 34 35 36 37 38 37 35 34 34 34 35 36 37 37 37 37 36 35 36 38 39 41 42 43 43 44 44
31 30 29 28 29 30 31 31 31 30 30 31 31 31 31 32 32 32 32 33 34 34 34 34 34 34 34 34 34 35 34 31 29 28 26 25 25 26 27 28 29 31 31 31 31 31 30 30 30 30 31 31 31 30 28 28 30 33 34 35 36 36 37 36 35 35 35 35 36 37 37 38 38 38 38 38 38 39 40 43 45 44 44 45 46
30 29 29 30 30 31 31 31 31 31 31 32 32 32 32 32 32 32 33 34 35 35 35 35 34 34 34 33 32 34 34 31 29 27 26 25 25 25 26 27 28 29 30 30 30 30 30 29 28 27 27 28 29 29 27 28 31 33 34 35 36 36 36 35 34 34 33 33 35 37 38 38 38 39 39 38 37 36 37 41 43 44 45 46 47
28 29 30 31 32 32 31 31 32 32 32 32 31 32 32 32 33 33 34 35 36 36 36 36 35 33 32 31 30 31 33 31 28 26 25 23 24 24 25 26 28 28 28 29 30 29 29 28 25 24 24 26 28 28 28 29 32 33 34 35 36 36 35 32 31 32 32 33 36 38 40 40 40 39 39 38 37 36 36 36 37 39 43 46 47
28 29 31 31 32 32 32 32 32 32 32 32 31 32 32 33 33 34 34 35 36 37 36 35 35 33 31 30 29 28 30 29 27 25 23 22 22 23 23 25 26 27 28 28 29 29 27 26 25 25 27 30 31 31 30 29 30 33 34 34 33 34 34 33 33 33 32 32 33 34 36 38 39 39 39 38 38 37 36 36 37 38 40 44 45
29 30 31 32 32 32 32 32 32 32 31 31 32 32 32 33 34 34 35 35 36 36 35 34 34 32 30 28 27 27 27 27 26 24 23 22 21 20 21 23 24 25 28 28 28 27 27 27 29 30 32 34 34 33 31 29 30 32 32 32 32 32 31 30 30 31 31 32 33 34 36 38 40 40 40 40 40 39 38 39 40 39 39 41 43
29 30 31 32 32 32 32 32 32 31 31 31 32 33 33 33 34 34 35 35 35 35 34 33 33 32 30 27 26 25 25 25 25 24 23 22 21 19 20 21 21 24 27 28 27 28 30 31 33 33 33 34 33 32 30 29 30 31 31 32 33 32 30 29 29 31 32 33 35 37 38 39 40 41 42 42 42 41 41 40 39 38 38 40 41
29 31 32 32 32 32 32 32 32 31 31 31 32 34 34 33 33 33 34 34 34 34 34 33 33 33 32 29 26 25 24 24 24 22 22 23 22 21 20 20 21 24 27 27 27 30 32 32 32 31 31 31 31 30 29 29 29 30 31 32 33 34 33 34 34 34 34 36 37 37 38 38 38 39 40 41 41 39 39 38 37 36 36 38 40
30 31 32 32 32 33 33 32 32 32 31 32 32 33 33 33 33 33 32 33 34 34 35 34 34 34 34 32 28 25 24 23 22 21 22 23 24 23 22 21 22 24 25 26 27 29 30 30 29 28 29 30 30 30 31 31 30 30 31 31 32 34 36 37 37 37 38 39 39 39 39 38 38 38 38 39 39 39 38 38 37 36 35 36 37
31 31 32 33 33 33 34 33 33 32 32 32 32 33 33 32 32 32 32 33 34 35 35 35 35 35 35 34 30 26 23 23 23 23 23 26 27 26 23 22 21 22 24 25 27 28 28 28 27 27 28 28 29 30 31 31 31 31 32 33 33 33 34 34 35 35 36 37 36 36 37 37 36 36 37 38 38 38 37 38 37 36 35 34 35
32 32 33 34 34 34 35 34 34 33 32 32 32 32 32 32 32 33 33 34 34 35 36 36 35 35 35 33 31 28 26 27 28 28 28 29 29 27 24 23 23 24 26 28 29 29 29 27 26 26 26 26 27 31 33 33 34 35 36 34 33 31 30 30 29 29 30 30 29 29 30 31 32 34 37 37 36 36 37 38 38 38 36 35 34
32 33 34 34 34 34 35 35 34 34 33 32 32 32 31 32 32 33 33 34 35 35 35 35 34 34 34 33 32 32 32 33 34 33 32 29 28 26 27 28 28 28 29 31 32 32 31 29 28 27 28 29 32 34 35 35 36 36 35 32 30 28 27 25 24 23 23 23 24 26 28 31 33 36 37 36 34 34 36 37 38 39 38 37 36
33 34 34 34 35 35 35 35 35 35 34 33 33 33 32 32 32 32 32 32 33 34 33 33 33 33 33 34 36 37 37 37 37 35 32 29 28 29 30 31 30 29 31 32 33 33 32 31 31 31 31 32 33 34 35 35 35 34 31 29 27 26 24 22 21 20 19 20 23 26 28 29 30 33 33 33 33 34 33 33 36 39 40 38 37
33 34 34 34 35 34 35 35 35 35 35 34 33 33 32 31 32 32 31 29 30 31 32 33 34 34 35 37 37 37 37 36 34 32 29 28 29 30 30 30 29 30 31 32 32 32 32 32 32 31 31 32 33 35 35 34 32 31 28 26 25 24 22 20 19 18 18 19 21 23 23 24 26 28 28 29 31 33 32 30 32 37 40 39 38
33 34 34 34 34 34 35 35 35 35 35 35 34 33 32 30 29 30 30 28 27 28 29 30 31 33 35 35 34 33 33 32 30 29 28 28 28 28 29 30 30 31 32 32 31 31 31 31 31 31 31 33 34 34 34 32 30 29 27 24 23 22 20 19 18 18 18 18 19 20 21 22 24 24 24 24 27 30 31 28 27 33 38 38 37
33 34 34 34 34 34 35 35 35 35 34 34 34 34 33 31 28 26 26 27 26 25 25 26 27 28 30 32 32 32 31 30 30 29 28 27 27 28 29 30 30 30 30 30 29 28 28 29 30 31 32 33 33 32 30 29 28 27 26 24 22 21 19 18 18 18 18 16 17 18 20 21 22 22 21 22 23 26 27 25 25 29 34 35 35
33 34 34 34 34 34 34 34 34 34 34 33 33 33 34 34 32 29 26 26 26 26 26 26 25 24 25 27 29 30 30 29 28 27 25 25 25 26 27 27 26 25 25 25 26 26 27 28 30 32 32 32 31 29 27 26 26 25 24 23 22 20 19 19 18 18 16 15 17 19 20 20 20 20 20 19 20 21 21 20 21 26 31 33 33
32 33 33 34 34 34 34 34 34 34 33 32 32 32 32 34 35 35 32 29 27 26 25 25 25 24 23 23 23 24 25 25 24 25 25 23 21 21 23 23 21 21 23 26 27 28 29 30 31 31 30 28 27 26 25 24 24 23 22 22 22 21 19 18 18 17 16 15 17 18 18 18 18 19 18 17 17 18 16 14 17 24 29 31 31
31 32 32 33 33 33 33 33 33 33 32 31 31 31 32 32 34 36 36 35 33 30 26 25 24 25 25 24 22 21 22 22 23 23 21 18 17 20 23 24 22 23 26 28 29 29 29 30 29 27 26 24 24 23 23 22 22 22 21 21 21 20 19 18 17 17 16 16 17 17 16 16 16 17 17 16 15 15 13 10 12 19 27 29 29
31 31 31 31 32 32 32 32 32 31 31 31 30 31 32 32 32 34 35 36 36 35 32 29 27 27 27 27 26 24 24 24 24 21 17 16 19 23 26 26 26 26 27 27 27 27 27 26 25 24 22 21 21 21 21 21 21 20 20 20 20 20 19 18 17 17 17 16 16 16 15 15 14 15 16 15 14 13 11 7 7 13 22 28 29
31 31 31 31 31 31 31 31 31 30 30 30 31 31 32 32 32 33 33 33 35 36 36 34 32 30 29 29 28 27 26 25 25 22 18 17 20 25 27 27 26 26 26 24 23 23 23 23 22 21 20 19 19 19 19 19 19 19 19 19 19 19 19 17 17 17 17 17 16 16 15 15 13 13 14 13 12 11 11 9 7 8 15 23 29
31 31 31 31 31 31 31 31 30 30 30 31 31 32 32 31 31 31 32 32 33 34 35 36 35 34 33 31 29 29 28 27 25 23 20 19 20 22 24 23 22 22 23 21 20 20 21 20 19 19 18 18 18 18 18 18 18 19 18 18 18 18 18 17 17 17 17 17 16 16 15 14 13 12 12 12 11 10 10 10 10 9 10 16 23
32 32 31 31 31 31 31 31 30 30 31 31 31 31 31 31 31 31 31 32 33 34 35 36 36 36 35 33 31 31 30 29 27 24 21 20 19 19 20 20 20 20 21 19 18 18 19 19 18 17 17 17 17 17 17 17 17 18 17 17 17 17 17 17 16 16 17 17 16 16 15 14 13 11 11 11 10 9 9 10 11 11 11 13 17
32 32 31 31 30 30 30 30 31 31 31 31 31 31 31 31 30 31 31 32 33 34 35 36 36 36 36 34 33 32 31 30 28 26 25 23 22 21 22 22 22 21 20 19 18 17 18 18 18 17 17 16 16 16 16 17 17 17 17 17 17 17 16 16 16 16 16 16 16 16 15 14 13 11 10 9 9 8 8 8 10 11 11 11 13
33 33 31 30 30 30 30 31 32 32 32 32 31 31 31 31 30 31 31 32 33 34 35 36 37 36 35 34 33 32 30 29 28 28 28 28 27 25 25 24 23 21 20 19 17 17 17 18 17 17 16 16 15 16 16 16 16 16 16 16 16 16 16 16 16 16 16 16 16 16 15 15 14 12 10 9 8 8 8 7 9 10 10 10 12
33 33 32 30 30 31 31 32 32 32 32 32 32 31 31 30 30 31 32 32 34 35 35 36 36 35 34 33 31 29 27 27 27 28 29 29 28 26 25 23 21 20 19 19 18 17 17 17 17 17 16 15 15 15 16 16 16 16 16 16 16 16 16 15 15 16 16 15 15 15 15 14 14 12 11 9 8 8 7 7 8 9 9 9 11
33 33 32 31 31 32 32 32 32 32 32 31 31 30 30 30 30 31 32 33 34 35 36 36 36 34 33 32 30 29 27 27 28 29 29 28 27 26 24 22 20 19 19 19 18 18 17 17 17 16 16 16 15 15 15 15 15 16 16 16 15 15 15 15 15 16 15 14 15 15 14 14 13 13 12 10 9 8 8 7 7 8 9 9 10
33 32 32 32 32 32 33 33 33 32 31 31 30 30 30 30 31 32 33 34 34 35 35 35 35 34 32 31 30 29 29 29 29 29 28 28 27 25 23 21 19 19 19 19 18 18 17 17 17 16 16 16 15 15 15 15 15 15 16 15 15 15 15 15 16 16 15 14 14 14 14 13 13 12 11 10 9 8 7 7 7 7 8 8 8
32 32 32 32 33 33 33 33 32 32 31 30 30 30 30 30 31 32 33 34 34 34 34 34 34 33 32 31 30 29 29 29 29 28 27 27 26 25 23 21 20 20 20 19 18 17 17 17 17 16 16 16 15 15 15 15 15 15 15 15 16 16 15 15 16 16 15 14 14 14 13 13 12 12 11 10 9 8 7 7 7 7 7 7 7
32 32 32 33 34 34 33 32 32 31 30 30 30 30 30 30 31 32 33 34 34 33 33 33 33 32 32 31 29 29 29 28 28 27 26 26 25 24 23 22 21 20 20 19 18 17 17 17 17 16 16 16 15 15 15 15 15 15 15 15 16 16 15 16 17 16 15 15 14 14 14 13 12 12 11 10 9 9 8 7 7 6 6 6 5
32 32 33 34 34 33 33 32 31 30 30 29 30 30 31 31 32 32 32 33 33 33 33 32 32 31 31 30 29 28 28 27 27 26 26 25 25 24 23 22 22 21 20 19 18 17 16 16 16 16 16 16 15 15 15 14 14 14 14 15 16 16 16 16 17 16 15 15 14 14 14 13 12 11 11 10 10 9 8 7 7 6 5 5 4
32 32 33 33 33 33 32 31 30 29 29 29 30 30 31 32 32 32 32 32 32 31 32 31 31 31 30 29 28 28 27 27 26 26 26 25 25 24 23 22 21 21 20 19 18 17 16 15 15 15 15 16 15 15 15 14 14 14 14 14 15 15 16 16 16 16 15 14 13 13 13 13 12 11 10 10 9 9 8 7 7 6 5 4 4
31 32 33 32 32 32 31 30 29 29 29 29 30 30 31 31 32 32 32 32 31 31 31 31 31 30 29 28 28 27 27 27 26 26 26 25 24 23 22 21 20 21 22 21 19 17 16 15 15 15 15 15 15 15 15 14 13 13 13 14 15 15 15 15 15 15 14 13 12 12 13 12 12 11 10 9 9 8 7 7 7 5 4 5 4
31 32 32 32 31 30 29 29 29 29 29 29 30 31 31 31 32 32 32 32 32 31 31 31 30 30 29 28 28 27 26 26 26 26 25 25 24 22 21 20 20 22 22 21 19 16 15 15 15 15 15 15 15 15 15 14 13 13 13 13 14 14 14 14 14 14 13 13 12 12 12 11 11 11 10 9 9 8 7 7 7 5 4 5 5
30 31 31 31 30 29 29 29 29 29 29 29 30 31 31 32 32 32 32 32 32 32 31 30 30 29 28 28 27 27 26 26 25 25 25 24 23 22 21 21 21 21 21 20 18 16 15 15 15 15 15 15 14 15 15 14 13 13 12 12 13 13 13 13 13 12 12 12 11 11 11 11 10 10 10 9 9 7 7 6 6 5 4 5 5
30 30 30 30 30 29 29 29 29 29 29 29 30 31 31 32 32 32 32 32 32 32 31 30 29 28 28 27 26 26 26 26 25 24 24 23 23 22 22 21 21 21 20 19 18 16 16 15 15 15 15 15 14 14 14 14 13 12 12 12 13 13 13 13 12 11 11 11 11 11 10 10 9 9 9 9 8 7 6 6 5 5 4 4 5
Wind_Direction
300 303 308 311 310 307 304 301 302 304 306 309 310 309 309 309 306 300 297 298 300 302 304 307 311 312 314 315 316 316 316 316 316 314 312 311 310 309 308 308 306 303 303 301 300 300 298 296 295 294 294 292 289 288 285 284 282 279 277 275 273 271 272 272 274 276 277 277 276 274 272 269 267 264 261 259 254 250 249 250 251 252 252 252 252
300 303 307 309 307 306 303 300 300 301 303 306 307 307 308 307 305 301 298 299 300 302 304 306 310 312 314 314 314 314 314 314 314 313 312 310 309 309 308 308 305 303 303 301 300 300 298 296 295 295 295 292 289 288 287 285 285 282 280 279 277 275 274 273 274 277 279 279 278 276 274 272 271 268 266 264 262 260 258 256 254 254 254 255 256
302 304 307 307 306 305 302 298 297 298 301 304 306 307 306 304 303 302 301 301 300 302 304 307 311 313 313 313 313 313 313 313 312 311 309 309 308 309 308 307 305 303 302 301 300 300 298 296 295 295 295 292 290 290 290 289 288 287 285 282 280 278 275 273 272 274 278 281 282 280 280 278 274 271 270 267 264 261 260 259 257 256 255 256 257
302 304 305 305 304 304 302 299 297 297 299 302 305 305 303 301 301 301 301 301 302 303 306 308 311 312 311 312 313 314 314 314 313 310 309 308 307 306 306 304 303 302 301 300 300 299 297 295 295 295 294 292 291 291 291 290 290 288 287 284 280 278 276 274 273 274 279 282 284 284 284 282 278 276 275 272 268 264 260 257 256 255 255 254 255
302 303 303 301 301 302 302 300 299 298 300 302 303 303 301 300 300 301 302 302 303 305 307 308 310 309 309 310 312 313 313 312 311 310 309 308 306 304 304 302 300 300 300 299 299 297 295 293 293 294 293 291 291 291 290 290 289 287 285 283 280 278 276 274 273 274 277 280 282 283 283 283 282 280 279 278 276 274 270 266 262 259 258 257 255
301 302 299 297 299 300 301 301 301 300 300 301 301 300 300 300 301 302 303 303 304 305 306 307 307 307 307 309 310 310 310 309 308 308 307 306 306 304 303 302 302 300 299 297 296 294 293 292 291 291 290 289 289 290 290 288 286 283 281 280 279 277 275 274 272 273 273 276 279 282 282 283 284 283 283 282 281 279 275 273 269 266 265 264 262
301 299 296 295 297 299 301 301 301 300 299 299 298 299 300 300 302 303 303 303 304 305 306 306 307 307 308 309 310 309 308 307 307 306 306 306 305 304 303 303 302 299 296 294 293 292 291 291 291 290 290 289 290 291 292 291 288 285 282 281 280 278 275 274 274 273 272 272 275 278 279 281 282 283 285 285 282 275 271 271 270 268 267 267 267
301 298 295 295 297 300 300 301 300 300 299 298 299 300 300 301 302 302 302 302 303 305 306 307 307 308 308 309 309 308 307 307 307 307 307 305 304 303 303 301 299 297 296 295 294 293 292 290 290 290 291 291 292 293 293 292 291 289 286 284 282 279 277 276 276 274 272 271 272 274 276 276 276 279 282 282 280 279 280 282 280 278 276 274 272
299 297 295 295 298 300 300 300 301 301 302 302 303 302 300 301 302 302 302 302 304 305 306 306 307 307 308 308 308 307 307 307 308 308 306 306 308 308 305 303 302 301 300 299 298 297 296 295 293 293 293 293 294 295 295 295 294 292 291 288 285 282 279 278 276 274 272 270 270 272 273 274 274 275 275 275 277 282 286 285 282 283 284 282 279
297 296 296 297 299 299 299 301 302 303 303 303 302 301 300 301 303 303 303 303 304 306 305 305 306 306 307 307 306 306 306 307 307 307 307 309 311 308 306 304 303 301 299 299 299 299 298 297 295 294 294 294 294 294 293 291 287 284 283 282 281 281 280 278 275 273 271 269 269 271 272 273 275 275 274 276 278 280 281 280 280 282 281 279 277
297 297 297 298 299 299 300 301 301 301 301 300 299 300 301 302 303 303 304 304 304 304 304 305 306 306 306 305 306 306 306 307 308 307 307 307 305 302 301 302 300 298 297 296 295 295 294 293 291 290 289 290 290 289 286 283 279 276 274 271 271 272 272 272 272 271 270 269 270 271 270 272 275 276 275 277 278 278 278 277 277 277 276 275 276
298 298 299 299 299 299 299 298 298 298 298 299 300 301 301 301 302 303 304 304 303 303 303 304 305 305 305 305 305 306 306 307 307 307 306 304 299 296 295 297 297 297 297 295 293 293 292 290 289 289 289 290 290 290 288 286 284 281 276 271 268 267 265 264 265 266 266 266 267 268 268 270 274 275 275 277 277 278 278 276 273 273 273 272 272
298 299 301 301 301 300 298 297 297 298 299 300 301 301 301 301 301 302 302 302 301 301 301 302 303 304 305 305 306 306 306 308 307 307 306 302 297 293 291 292 293 294 295 293 292 291 290 289 289 289 290 291 291 292 291 289 287 284 280 275 271 269 266 262 261 261 262 264 265 266 267 269 271 273 274 276 276 276 274 273 272 271 270 269 270
299 301 303 303 302 301 301 300 299 299 301 301 301 300 300 300 301 301 301 300 299 299 300 302 304 306 307 307 307 306 307 308 308 307 306 301 296 293 291 290 290 291 291 290 289 289 288 288 288 288 289 291 292 293 292 290 288 285 282 279 276 274 272 269 265 262 260 261 262 263 263 264 265 268 271 272 272 271 271 271 272 271 271 273 274
301 302 303 304 303 303 304 303 301 302 302 302 301 300 300 301 301 302 301 300 299 300 302 305 306 308 308 308 307 306 308 309 308 306 305 301 297 293 290 289 289 288 288 288 287 287 287 288 288 288 289 291 292 292 292 290 288 286 285 284 282 281 280 278 275 271 266 264 262 262 261 260 262 265 267 268 268 268 270 272 273 273 273 274 274
301 302 304 305 305 305 306 304 303 304 304 303 303 303 303 303 303 303 302 301 302 303 305 307 308 308 308 308 307 306 307 308 307 305 304 301 298 294 291 290 289 289 289 289 287 287 287 288 288 288 290 291 291 291 291 288 285 283 283 283 283 283 282 280 278 275 272 270 267 264 263 263 264 264 265 265 266 268 271 271 270 269 267 266 267
303 304 306 307 306 305 305 305 305 305 306 305 305 305 305 304 304 304 303 303 304 305 306 307 307 307 307 308 307 306 307 308 307 306 304 300 298 295 293 292 291 290 289 288 287 288 288 288 288 289 290 290 291 292 293 290 286 284 284 284 284 283 282 281 279 275 273 271 270 270 270 268 268 269 269 270 270 271 269 266 266 265 261 259 261
306 307 307 306 304 304 304 305 305 306 306 306 306 305 305 304 304 305 305 305 305 306 306 305 305 306 306 307 307 306 305 307 307 305 302 299 297 295 293 292 290 290 291 291 291 291 290 290 291 291 289 289 290 293 294 291 288 287 287 287 287 287 286 285 283 280 276 273 272 272 271 270 270 271 271 270 270 270 267 266 268 265 259 256 258
309 307 305 304 303 303 304 305 306 307 307 306 306 305 305 305 306 306 305 305 304 304 304 304 304 305 306 306 305 304 303 306 306 304 302 299 296 294 293 292 293 295 297 296 295 295 295 295 294 289 286 286 287 289 290 288 287 288 288 288 289 288 288 287 285 282 280 277 275 276 276 274 272 272 271 269 269 269 269 271 272 267 258 256 256
308 304 303 303 303 304 305 306 306 307 307 307 306 305 305 306 306 306 305 304 303 303 303 303 303 305 306 306 304 303 303 305 306 305 303 299 295 294 292 293 298 300 299 298 299 299 296 290 284 282 283 284 284 288 290 287 286 289 291 292 291 289 288 288 286 283 281 279 277 277 277 275 274 273 274 273 271 270 270 273 275 270 261 256 254
304 303 303 304 304 305 306 307 307 308 308 307 306 305 306 306 306 305 305 303 302 302 303 303 304 306 307 307 305 304 305 307 308 308 303 298 295 293 291 294 298 299 298 300 300 295 288 283 283 285 287 288 288 291 292 289 289 292 293 292 290 289 290 290 286 281 278 276 276 275 275 275 275 275 276 276 275 274 273 274 275 273 265 256 250
304 304 304 305 306 307 307 307 308 308 308 308 307 306 306 306 305 305 305 303 303 303 304 305 306 307 308 309 307 307 308 309 310 309 305 301 301 298 295 295 295 298 302 302 297 290 287 288 289 291 292 293 293 294 294 292 292 292 290 288 286 287 291 291 286 283 281 280 279 278 277 277 278 277 278 278 276 276 275 273 273 272 266 257 251
306 305 306 307 307 308 308 309 310 310 310 309 308 306 307 307 306 306 305 304 304 304 305 307 308 308 310 311 311 312 312 311 311 309 305 304 305 303 299 295 293 298 302 300 293 290 290 291 292 295 297 297 295 294 293 291 290 290 289 287 286 286 288 288 287 288 287 285 283 283 281 280 280 278 278 277 276 274 272 270 271 270 263 257 255
307 307 308 308 308 309 310 311 311 312 311 310 308 307 308 308 307 306 306 306 305 306 308 309 308 309 310 311 313 315 314 311 309 307 306 306 306 307 304 297 291 293 296 294 292 293 294 295 297 298 295 291 288 287 284 284 287 292 292 291 290 288 287 287 287 287 287 285 285 284 282 281 280 279 278 278 277 275 273 272 272 271 264 259 258
308 308 309 309 311 312 312 312 313 312 312 311 309 309 309 309 309 308 309 308 307 307 308 308 307 307 308 309 313 316 315 311 309 308 308 307 307 307 305 298 292 293 295 296 296 298 299 298 297 294 290 288 287 286 286 289 294 298 300 300 298 293 289 287 286 286 285 284 283 283 281 281 280 278 277 276 274 272 272 273 272 271 266 261 259
309 310 310 311 313 313 312 313 313 313 313 312 311 311 311 311 311 310 310 310 308 307 307 306 305 305 306 308 312 314 313 311 311 310 310 309 308 309 308 304 302 302 301 300 301 304 304 301 300 299 299 298 297 296 298 300 301 302 302 301 298 294 291 289 287 285 283 282 281 281 279 276 274 271 271 272 269 267 268 270 269 268 266 261 258
310 311 312 313 314 313 313 314 314 314 315 314 313 313 313 312 311 311 311 310 307 305 304 303 304 304 306 309 311 312 312 311 311 311 312 311 310 311 311 309 307 306 305 305 306 308 308 306 305 304 299 297 296 296 298 300 300 301 301 299 297 295 293 290 288 284 282 280 280 277 273 271 270 270 272 273 270 267 269 270 267 264 262 259 255
310 311 313 314 314 314 315 315 315 316 316 316 315 314 314 312 309 308 308 307 305 304 304 304 305 306 308 309 309 308 308 308 309 310 312 312 312 312 310 308 307 305 304 305 306 306 305 303 301 297 294 293 295 297 299 301 301 299 298 298 297 295 292 289 285 280 278 278 277 276 276 276 276 276 275 274 270 267 269 271 266 260 257 253 250
310 311 314 315 315 316 316 316 316 317 316 316 316 314 312 311 307 306 307 307 305 304 303 303 304 305 306 306 306 305 305 306 308 309 310 310 310 307 302 299 298 297 296 297 298 298 297 295 293 291 291 292 295 299 301 301 300 298 298 299 298 296 294 292 288 283 281 281 281 283 286 286 283 279 275 273 269 266 266 270 267 259 252 247 245
311 313 316 316 317 317 317 316 317 317 316 316 315 312 311 310 307 306 306 305 303 300 297 296 297 299 300 300 301 302 302 304 305 303 301 301 298 293 289 288 289 289 290 292 293 291 289 288 287 288 291 295 298 301 301 299 298 298 299 300 299 298 298 296 293 291 288 286 288 292 294 293 290 285 278 272 269 264 263 266 265 256 247 243 243
313 315 317 318 318 317 317 316 317 316 315 315 313 312 311 310 309 307 305 304 305 304 300 296 293 292 290 291 292 294 295 296 296 295 295 294 290 286 286 286 286 289 290 290 287 284 282 283 286 289 294 297 299 299 297 295 296 297 298 299 299 300 300 299 298 298 295 293 296 299 299 298 296 290 281 275 272 270 267 267 262 251 244 241 240
314 317 318 318 318 317 316 316 315 315 314 314 313 312 312 311 312 313 312 310 309 308 304 299 295 291 287 285 287 289 291 294 296 296 294 290 287 287 288 287 288 289 286 279 276 277 280 284 288 292 295 296 296 294 293 293 293 295 297 298 299 300 301 301 302 302 299 300 304 302 301 302 299 294 287 279 275 275 273 269 261 250 242 239 237
316 317 318 318 317 316 315 315 314 313 313 313 313 313 313 312 312 313 314 313 311 308 305 303 302 299 293 288 286 286 288 291 293 293 290 288 290 293 292 289 285 281 275 272 273 277 281 285 289 291 292 292 291 291 290 291 292 293 294 296 298 299 300 301 303 302 300 303 306 304 303 305 303 299 291 279 272 276 278 272 261 250 240 234 232
318 318 318 317 316 315 315 314 313 312 312 313 313 313 313 312 311 311 311 312 312 312 311 310 310 309 307 305 302 300 298 296 292 290 290 293 298 298 292 285 279 275 274 276 279 282 284 286 288 288 288 287 288 289 289 290 291 292 293 294 296 297 299 301 302 302 302 303 304 306 308 309 307 304 295 280 270 272 276 273 259 247 237 230 228
319 318 319 318 317 315 315 314 312 312 313 313 314 313 312 312 311 309 309 309 310 312 314 316 316 315 314 314 314 314 312 308 302 299 298 299 300 297 291 286 284 281 279 280 282 283 283 285 285 285 285 285 286 288 289 289 290 291 292 294 296 297 299 301 302 303 303 305 306 310 312 312 310 307 299 285 270 267 271 269 254 241 235 232 230
321 321 321 321 319 317 315 313 313 313 314 314 315 314 313 312 310 309 309 309 309 310 312 315 317 317 316 315 316 317 316 312 307 305 301 297 294 292 290 289 289 286 284 283 282 279 279 281 283 284 284 285 287 289 288 288 289 290 292 294 296 298 299 301 302 303 303 304 306 310 313 314 313 307 300 287 271 265 268 266 255 239 231 231 233
324 323 323 323 321 318 317 315 315 315 315 316 316 314 313 311 310 309 309 309 309 310 311 313 315 315 315 316 318 317 316 313 308 302 298 291 287 286 288 291 291 289 287 284 280 277 277 279 282 284 285 285 286 287 288 288 288 289 290 293 295 297 299 300 301 301 302 302 304 308 312 315 316 312 304 292 274 262 261 262 258 246 229 227 234
325 325 325 324 322 320 319 317 317 317 317 317 316 314 312 311 310 309 309 310 310 310 310 312 312 311 312 315 318 317 316 313 308 304 301 298 295 293 295 296 297 295 291 286 282 280 279 280 282 284 285 286 286 287 288 288 287 288 290 293 294 296 297 297 296 297 298 300 303 308 312 315 316 314 308 299 285 268 259 255 252 248 238 229 230
326 326 326 325 323 321 320 319 318 319 319 317 316 315 312 311 311 311 310 310 309 309 309 310 310 310 311 314 316 317 316 313 311 310 310 309 308 307 305 304 302 299 294 288 284 281 279 280 282 283 284 285 285 286 287 287 287 287 290 292 295 296 296 297 297 297 298 300 303 308 313 315 317 315 310 303 294 281 266 252 244 245 245 238 229
326 326 326 325 323 322 322 321 321 320 319 317 316 315 313 312 312 311 310 309 308 308 308 308 309 310 312 313 314 315 314 310 309 308 308 308 308 308 306 304 302 298 293 288 285 282 279 279 281 282 284 286 286 285 285 286 287 288 289 291 294 295 296 298 300 299 299 302 306 309 312 314 315 316 314 307 299 291 279 260 244 241 243 243 238
326 325 325 325 325 325 324 324 323 321 319 318 317 316 314 314 313 311 310 308 307 307 307 307 308 311 312 312 313 313 308 303 302 302 302 304 305 305 304 302 300 297 295 291 287 284 281 279 279 281 283 286 286 284 282 283 285 287 287 288 291 294 296 298 299 299 301 304 306 309 312 314 315 317 318 314 305 294 283 268 251 243 238 238 244
325 325 325 326 327 326 326 324 323 321 319 318 317 316 315 315 313 312 310 308 307 307 306 306 309 311 313 313 313 311 306 303 303 303 304 306 306 306 305 303 301 300 298 294 290 286 282 279 279 280 282 284 285 283 281 281 283 284 285 286 289 292 295 297 298 298 302 306 307 308 310 312 314 316 317 315 310 300 287 273 257 245 236 232 239
324 325 326 327 327 326 325 324 323 321 319 318 318 317 316 315 314 312 310 308 308 308 307 308 310 312 313 314 314 312 309 307 307 307 307 308 308 308 307 307 305 304 301 296 290 286 283 280 279 279 280 281 283 282 280 281 281 282 283 285 287 289 293 296 296 299 305 308 308 308 309 309 311 313 315 316 313 304 293 281 264 247 235 231 235
324 326 327 327 327 327 325 324 322 321 319 319 318 318 318 316 315 313 311 310 310 310 309 309 311 312 312 313 313 311 310 310 310 309 309 309 309 310 310 310 309 306 302 297 291 286 283 282 280 279 278 279 279 280 280 279 279 279 281 282 283 285 289 291 293 299 307 311 309 309 309 308 308 311 314 316 315 309 299 287 271 251 234 230 232
325 327 327 327 327 326 325 324 322 320 319 319 319 319 319 318 316 314 313 312 311 311 310 310 311 311 311 312 311 310 309 309 309 310 309 309 310 311 311 312 312 308 303 299 294 288 284 282 280 279 278 276 275 276 277 277 275 275 275 277 279 281 284 285 289 298 307 310 310 310 308 306 307 310 313 316 317 316 309 295 282 266 243 234 232
327 328 328 327 326 325 324 324 322 320 320 320 320 320 319 318 316 315 314 313 313 312 311 311 311 311 311 311 310 309 309 309 309 310 310 310 311 311 311 312 312 310 307 303 298 290 284 282 281 280 278 276 274 273 274 275 275 273 271 272 275 277 278 281 287 295 302 306 307 307 306 305 306 308 310 313 315 316 313 303 293 282 260 243 226
328 328 327 326 325 325 324 323 321 320 321 322 321 320 319 318 317 316 315 315 315 313 312 312 311 310 310 310 310 309 309 309 309 309 309 310 311 311 311 311 311 311 311 309 302 294 287 284 283 281 279 277 276 273 272 273 275 274 271 270 271 273 275 279 284 291 297 300 302 303 302 303 303 303 305 308 309 310 312 309 302 290 268 249 217
329 328 327 327 326 324 324 323 322 322 323 323 322 320 319 318 318 317 316 316 316 314 313 312 311 310 309 309 309 310 310 309 308 308 309 310 312 312 311 310 310 312 313 310 305 298 291 287 285 283 281 279 276 274 272 272 274 275 273 270 269 271 275 279 284 288 291 294 297 298 298 299 300 300 301 303 304 308 313 313 308 296 268 246 217
330 329 328 328 327 325 324 324 323 324 324 323 322 321 320 319 319 318 318 317 316 314 313 312 311 310 310 309 308 309 310 309 308 308 308 309 312 314 313 311 309 310 310 309 305 300 295 291 287 284 282 279 277 274 272 270 272 274 274 272 270 273 276 278 281 285 288 290 292 293 293 294 294 295 296 297 297 302 309 312 312 304 272 243 221
331 331 330 329 328 327 326 325 325 325 325 323 321 321 320 320 319 319 319 317 315 314 313 312 311 310 310 308 308 309 309 309 310 309 308 309 311 313 313 312 309 309 309 308 305 302 298 294 290 286 282 279 277 274 272 270 270 272 275 275 273 272 274 276 280 283 286 287 287 287 289 290 289 289 290 291 289 292 300 305 307 303 278 249 227
332 332 332 331 330 329 328 327 327 326 325 323 322 321 321 320 320 320 319 317 315 314 314 313 312 311 310 309 308 309 309 310 311 311 310 310 311 312 313 312 310 309 310 310 308 305 301 296 291 287 283 279 276 273 271 269 268 270 274 275 274 273 274 277 281 283 282 281 283 285 286 286 286 285 284 283 281 283 289 295 297 295 278 254 232
Height
1506 1504 1503 1501 1499 1496 1495 1493 1491 1490 1488 1486 1484 1483 1481 1480 1478 1477 1476 1474 1472 1471 1469 1468 1466 1465 1463 1461 1460 1459 1457 1456 1455 1453 1452 1450 1449 1448 1447 1446 1444 1442 1441 1440 1440 1439 1437 1436 1435 1435 1434 1433 1432 1432 1431 1431 1431 1430 1430 1428 1428 1428 1427 1426 1420 1410 1409 1416 1416 1415 1418 1418 1418 1419 1420 1420 1422 1423 1423 1423 1424 1424 1424 1424 1425
1503 1501 1499 1497 1495 1493 1491 1490 1488 1486 1485 1483 1481 1479 1478 1477 1475 1474 1472 1471 1469 1467 1466 1464 1463 1461 1459 1458 1457 1455 1454 1453 1451 1450 1448 1447 1446 1445 1444 1442 1440 1439 1438 1436 1435 1435 1433 1431 1430 1430 1430 1429 1428 1427 1427 1427 1426 1425 1425 1425 1423 1423 1423 1421 1418 1410 1405 1408 1411 1410 1411 1413 1412 1413 1415 1415 1416 1417 1417 1418 1418 1419 1419 1419 1419
1499 1497 1495 1493 1492 1490 1488 1487 1485 1483 1481 1480 1478 1476 1475 1473 1472 1471 1469 1467 1466 1464 1463 1461 1459 1458 1456 1454 1453 1452 1450 1449 1448 1447 1445 1444 1442 1441 1440 1438 1437 1435 1434 1432 1431 1430 1429 1427 1426 1426 1425 1424 1423 1423 1422 1422 1422 1420 1420 1420 1419 1418 1418 1417 1414 1410 1404 1402 1405 1405 1406 1407 1407 1407 1409 1410 1410 1412 1412 1412 1412 1413 1413 1414 1414
1495 1493 1491 1490 1488 1487 1485 1483 1482 1480 1478 1476 1474 1473 1471 1470 1469 1467 1466 1464 1462 1461 1459 1458 1456 1454 1453 1451 1449 1448 1447 1445 1444 1443 1442 1440 1439 1437 1436 1434 1433 1431 1430 1428 1427 1426 1424 1423 1422 1421 1421 1419 1418 1418 1418 1417 1417 1416 1415 1415 1414 1413 1413 1413 1411 1409 1404 1400 1400 1401 1401 1402 1402 1402 1404 1404 1404 1406 1406 1406 1407 1407 1407 1408 1409
1492 1490 1488 1486 1485 1483 1482 1480 1478 1476 1474 1473 1471 1469 1468 1467 1465 1464 1462 1460 1459 1457 1456 1454 1453 1451 1449 1448 1446 1445 1443 1442 1440 1439 1437 1436 1435 1433 1432 1430 1429 1427 1426 1424 1423 1422 1420 1419 1418 1417 1416 1415 1414 1414 1414 1413 1413 1412 1411 1410 1410 1409 1409 1409 1408 1407 1404 1399 1397 1398 1398 1398 1398 1398 1399 1399 1399 1400 1400 1400 1401 1401 1402 1402 1403
1488 1486 1484 1482 1481 1479 1478 1476 1474 1473 1471 1469 1467 1466 1464 1463 1461 1460 1458 1457 1455 1454 1452 1451 1449 1448 1446 1444 1443 1441 1440 1438 1437 1435 1434 1432 1431 1429 1427 1426 1425 1423 1422 1420 1419 1418 1416 1415 1414 1414 1413 1411 1410 1410 1409 1409 1408 1408 1407 1406 1406 1406 1405 1405 1404 1403 1401 1398 1395 1394 1394 1394 1394 1394 1395 1396 1395 1395 1395 1395 1395 1396 1396 1397 1397
1484 1482 1480 1479 1477 1476 1474 1472 1471 1469 1467 1466 1464 1462 1461 1459 1458 1456 1455 1453 1451 1450 1449 1447 1446 1444 1442 1441 1439 1438 1436 1434 1433 1431 1430 1428 1426 1425 1423 1422 1420 1419 1417 1416 1415 1414 1412 1411 1410 1409 1409 1407 1406 1406 1405 1405 1404 1403 1403 1402 1402 1402 1401 1400 1400 1400 1398 1396 1393 1391 1391 1391 1391 1390 1390 1392 1392 1391 1391 1390 1390 1390 1392 1392 1391
1480 1478 1477 1475 1473 1472 1470 1469 1467 1465 1464 1462 1460 1459 1457 1456 1454 1453 1451 1450 1448 1447 1445 1443 1441 1440 1438 1437 1435 1434 1432 1430 1429 1427 1426 1424 1422 1421 1419 1418 1416 1414 1413 1411 1411 1409 1408 1407 1406 1405 1404 1403 1402 1402 1401 1401 1400 1399 1399 1399 1398 1398 1397 1396 1396 1395 1394 1392 1390 1388 1388 1387 1387 1387 1387 1388 1388 1387 1388 1388 1386 1386 1387 1387 1387
1476 1474 1473 1471 1469 1468 1467 1465 1463 1462 1460 1458 1457 1455 1453 1452 1450 1449 1448 1446 1444 1443 1441 1439 1437 1435 1434 1432 1431 1429 1428 1426 1425 1423 1421 1419 1418 1416 1414 1413 1411 1409 1408 1406 1405 1404 1403 1402 1401 1400 1400 1399 1398 1398 1397 1397 1396 1394 1394 1394 1394 1393 1393 1392 1392 1391 1390 1389 1386 1385 1385 1383 1383 1384 1384 1384 1384 1383 1384 1385 1383 1382 1383 1383 1382
1472 1471 1469 1467 1466 1464 1462 1461 1459 1457 1456 1454 1453 1451 1450 1449 1447 1445 1444 1442 1441 1439 1437 1435 1434 1432 1430 1428 1426 1425 1423 1422 1420 1419 1418 1416 1414 1412 1410 1409 1407 1405 1403 1402 1400 1399 1398 1397 1396 1396 1395 1394 1394 1393 1393 1393 1392 1391 1390 1390 1390 1389 1388 1388 1387 1387 1386 1385 1382 1382 1381 1378 1378 1379 1380 1379 1381 1381 1381 1381 1379 1379 1380 1379 1377
1468 1467 1465 1463 1462 1460 1458 1457 1455 1453 1452 1450 1449 1447 1446 1445 1443 1441 1440 1438 1437 1435 1433 1431 1429 1428 1426 1424 1422 1420 1419 1418 1416 1415 1414 1413 1412 1410 1408 1406 1404 1402 1400 1399 1397 1395 1394 1393 1392 1391 1391 1390 1390 1389 1389 1389 1388 1388 1387 1386 1386 1386 1384 1383 1382 1381 1381 1380 1378 1378 1377 1374 1373 1375 1375 1375 1377 1377 1377 1377 1377 1376 1376 1375 1373
1464 1463 1461 1460 1458 1456 1455 1453 1451 1450 1448 1446 1445 1443 1442 1440 1439 1437 1435 1434 1432 1431 1429 1427 1425 1424 1422 1419 1418 1416 1414 1413 1412 1411 1410 1410 1409 1407 1405 1402 1400 1398 1396 1395 1393 1391 1390 1389 1388 1387 1386 1386 1385 1384 1383 1383 1382 1382 1381 1381 1381 1380 1380 1379 1378 1377 1376 1375 1373 1372 1372 1370 1369 1370 1371 1372 1373 1373 1372 1373 1373 1372 1371 1371 1369
1461 1459 1457 1456 1454 1452 1451 1449 1447 1446 1444 1442 1441 1439 1438 1436 1435 1433 1431 1430 1428 1426 1425 1423 1421 1420 1418 1415 1413 1411 1410 1409 1408 1406 1405 1405 1404 1403 1401 1398 1396 1393 1392 1390 1389 1387 1386 1384 1383 1381 1381 1380 1380 1379 1378 1377 1376 1376 1375 1374 1374 1373 1373 1372 1372 1372 1372 1371 1369 1367 1367 1367 1365 1364 1367 1369 1369 1368 1367 1367 1368 1367 1366 1365 1364
1457 1455 1453 1452 1450 1449 1447 1445 1443 1441 1440 1438 1437 1435 1434 1432 1431 1429 1427 1425 1424 1422 1420 1419 1417 1415 1413 1411 1408 1406 1405 1404 1403 1402 1401 1400 1399 1398 1396 1394 1391 1389 1388 1386 1385 1383 1382 1380 1378 1376 1376 1375 1375 1374 1373 1372 1371 1370 1369 1368 1367 1367 1366 1366 1365 1365 1365 1365 1363 1362 1362 1363 1361 1360 1362 1365 1364 1363 1362 1362 1362 1362 1360 1359 1359
1452 1451 1449 1448 1447 1445 1443 1441 1439 1437 1436 1434 1433 1431 1430 1428 1426 1425 1423 1421 1419 1417 1416 1414 1412 1410 1408 1406 1404 1401 1400 1400 1398 1397 1397 1395 1395 1394 1391 1389 1386 1384 1383 1382 1380 1379 1377 1376 1374 1372 1372 1371 1370 1370 1368 1367 1366 1365 1364 1363 1362 1361 1360 1360 1359 1359 1358 1358 1357 1357 1357 1358 1357 1356 1358 1359 1359 1357 1357 1356 1356 1356 1355 1354 1354
1448 1447 1446 1444 1443 1441 1439 1437 1435 1433 1431 1430 1428 1426 1425 1423 1422 1420 1418 1416 1414 1412 1411 1409 1407 1405 1404 1402 1399 1396 1396 1396 1394 1393 1392 1391 1390 1388 1386 1384 1382 1379 1378 1377 1376 1374 1373 1372 1370 1369 1368 1366 1365 1365 1364 1363 1362 1361 1360 1359 1358 1357 1355 1354 1354 1354 1353 1353 1352 1352 1352 1352 1352 1352 1352 1353 1353 1352 1352 1351 1350 1351 1351 1349 1349
1445 1443 1442 1440 1439 1437 1435 1433 1431 1429 1427 1425 1423 1422 1420 1418 1417 1415 1413 1411 1409 1407 1406 1404 1402 1401 1399 1397 1395 1391 1390 1390 1389 1388 1387 1386 1385 1383 1381 1379 1377 1375 1373 1372 1371 1369 1368 1367 1366 1365 1363 1362 1361 1360 1360 1359 1358 1357 1356 1355 1353 1352 1350 1349 1349 1348 1347 1347 1346 1346 1346 1346 1346 1346 1346 1346 1347 1348 1347 1345 1344 1346 1345 1344 1342
1441 1439 1437 1436 1434 1433 1431 1429 1427 1425 1423 1421 1419 1417 1416 1414 1412 1411 1408 1406 1404 1402 1401 1399 1398 1396 1394 1392 1391 1387 1385 1385 1385 1383 1382 1382 1381 1379 1376 1374 1372 1370 1369 1367 1366 1365 1364 1363 1362 1361 1360 1358 1357 1356 1355 1355 1354 1353 1352 1350 1349 1347 1346 1345 1344 1343 1342 1341 1340 1340 1339 1339 1339 1339 1339 1339 1341 1342 1342 1340 1339 1340 1339 1338 1336
1437 1435 1433 1432 1430 1428 1427 1425 1423 1421 1419 1417 1415 1413 1411 1409 1407 1406 1404 1401 1399 1397 1396 1394 1392 1391 1390 1388 1386 1383 1380 1380 1380 1378 1377 1377 1376 1375 1373 1370 1368 1366 1365 1363 1362 1361 1360 1359 1358 1357 1357 1355 1354 1353 1352 1351 1350 1349 1348 1346 1344 1342 1341 1341 1340 1338 1337 1336 1334 1333 1332 1332 1332 1332 1332 1333 1334 1335 1336 1335 1335 1335 1333 1331 1331
1433 1431 1429 1428 1426 1424 1423 1421 1418 1417 1415 1413 1411 1409 1407 1405 1403 1401 1399 1397 1394 1392 1391 1389 1387 1386 1385 1383 1381 1380 1377 1375 1375 1374 1373 1372 1372 1371 1369 1367 1364 1363 1361 1360 1358 1357 1356 1354 1353 1353 1353 1351 1350 1349 1348 1346 1345 1344 1343 1342 1339 1338 1337 1336 1335 1333 1332 1331 1329 1329 1327 1326 1326 1326 1326 1326 1327 1328 1328 1328 1329 1329 1327 1326 1325
1429 1427 1425 1423 1422 1420 1418 1416 1414 1413 1411 1408 1406 1404 1403 1401 1398 1396 1394 1392 1390 1388 1386 1385 1382 1381 1380 1379 1376 1375 1373 1371 1370 1369 1368 1368 1367 1367 1365 1363 1361 1360 1358 1357 1355 1353 1351 1350 1349 1349 1348 1347 1346 1345 1343 1342 1341 1339 1338 1336 1334 1334 1333 1331 1329 1327 1326 1325 1324 1324 1323 1322 1321 1320 1320 1320 1320 1321 1322 1322 1322 1322 1321 1319 1320
1425 1423 1421 1419 1417 1416 1414 1412 1410 1408 1407 1404 1402 1399 1398 1397 1394 1392 1390 1387 1385 1383 1381 1380 1378 1376 1375 1374 1372 1371 1369 1367 1366 1364 1363 1363 1363 1362 1361 1360 1358 1357 1355 1353 1351 1348 1346 1345 1344 1344 1343 1342 1341 1340 1339 1337 1336 1333 1332 1331 1330 1329 1327 1324 1322 1321 1320 1320 1319 1318 1317 1317 1316 1315 1315 1315 1315 1315 1315 1315 1315 1315 1313 1313 1314
1421 1419 1417 1414 1413 1411 1410 1408 1406 1404 1402 1400 1398 1395 1393 1392 1390 1387 1385 1382 1380 1378 1376 1375 1373 1371 1369 1368 1367 1366 1365 1363 1362 1360 1359 1358 1358 1358 1357 1356 1355 1354 1351 1348 1346 1343 1342 1341 1340 1339 1339 1338 1337 1335 1334 1332 1330 1328 1327 1326 1324 1321 1319 1317 1316 1316 1315 1314 1314 1312 1312 1312 1311 1310 1310 1309 1309 1309 1309 1309 1309 1309 1308 1307 1308
1416 1414 1412 1410 1409 1407 1405 1403 1402 1400 1398 1396 1393 1391 1389 1387 1385 1383 1381 1378 1375 1373 1371 1370 1368 1366 1364 1363 1362 1361 1360 1359 1358 1357 1356 1355 1354 1354 1353 1352 1350 1348 1346 1343 1341 1340 1338 1337 1336 1336 1335 1333 1331 1330 1327 1326 1324 1323 1322 1320 1318 1315 1314 1312 1311 1310 1309 1309 1308 1307 1306 1306 1306 1305 1305 1304 1304 1303 1303 1302 1302 1302 1302 1302 1303
1412 1410 1408 1406 1404 1402 1400 1399 1397 1396 1394 1392 1389 1387 1384 1382 1380 1378 1376 1374 1371 1368 1367 1365 1364 1362 1360 1358 1357 1357 1356 1355 1354 1354 1353 1351 1350 1349 1348 1347 1345 1343 1341 1339 1338 1336 1335 1333 1332 1331 1329 1328 1326 1324 1322 1321 1320 1319 1317 1316 1314 1312 1310 1308 1307 1306 1304 1303 1303 1302 1301 1301 1301 1300 1299 1299 1298 1297 1297 1296 1296 1296 1297 1297 1297
1408 1406 1404 1402 1400 1398 1396 1394 1393 1391 1389 1387 1385 1383 1380 1378 1375 1373 1371 1369 1367 1365 1363 1361 1360 1358 1356 1355 1353 1352 1352 1351 1350 1349 1348 1347 1345 1344 1343 1341 1340 1339 1337 1335 1334 1332 1331 1329 1328 1326 1325 1324 1322 1320 1319 1318 1317 1315 1313 1312 1310 1308 1306 1305 1303 1302 1300 1299 1298 1297 1296 1295 1295 1294 1293 1293 1293 1292 1291 1291 1290 1290 1291 1292 1292
1403 1402 1400 1398 1396 1394 1392 1389 1388 1386 1384 1382 1380 1378 1376 1374 1371 1369 1367 1365 1363 1361 1359 1358 1356 1354 1352 1351 1349 1348 1347 1346 1345 1344 1343 1342 1340 1339 1337 1336 1335 1333 1332 1330 1328 1327 1326 1324 1323 1322 1321 1320 1319 1318 1316 1314 1313 1311 1309 1307 1306 1304 1302 1301 1300 1298 1297 1296 1295 1293 1291 1290 1289 1288 1288 1288 1287 1286 1286 1286 1285 1285 1286 1287 1287
1400 1398 1396 1394 1392 1390 1388 1385 1383 1381 1379 1377 1376 1373 1372 1370 1367 1365 1364 1362 1359 1357 1355 1354 1352 1350 1349 1347 1345 1344 1342 1341 1341 1340 1339 1337 1335 1334 1332 1331 1329 1328 1326 1325 1324 1323 1321 1320 1319 1318 1318 1316 1315 1314 1312 1310 1308 1306 1304 1303 1301 1300 1298 1297 1296 1295 1293 1292 1291 1289 1287 1286 1285 1283 1283 1282 1281 1281 1281 1281 1280 1280 1280 1282 1282
1396 1394 1392 1390 1388 1385 1383 1381 1379 1376 1374 1372 1371 1369 1368 1366 1363 1361 1360 1359 1356 1354 1352 1350 1348 1347 1345 1344 1342 1340 1338 1337 1336 1336 1335 1334 1332 1330 1329 1327 1326 1325 1323 1323 1321 1320 1318 1317 1315 1314 1313 1312 1310 1309 1307 1305 1303 1302 1300 1299 1298 1296 1295 1293 1292 1291 1289 1288 1287 1285 1283 1282 1280 1279 1278 1277 1276 1276 1276 1276 1275 1275 1276 1277 1277
1392 1390 1388 1386 1384 1381 1379 1376 1374 1372 1370 1368 1366 1364 1363 1363 1361 1358 1356 1355 1353 1352 1350 1348 1347 1345 1344 1341 1339 1337 1334 1333 1333 1332 1332 1331 1330 1328 1326 1325 1324 1322 1321 1320 1318 1316 1314 1312 1311 1310 1309 1308 1306 1304 1303 1301 1299 1297 1296 1295 1294 1292 1291 1290 1288 1287 1285 1284 1283 1281 1280 1278 1276 1274 1273 1272 1271 1271 1271 1271 1270 1270 1271 1272 1272
1388 1386 1384 1382 1380 1377 1375 1372 1370 1368 1366 1364 1362 1359 1357 1356 1356 1356 1353 1351 1349 1348 1347 1346 1345 1344 1342 1339 1336 1334 1332 1330 1329 1329 1328 1327 1325 1323 1322 1321 1320 1318 1317 1315 1313 1311 1309 1308 1307 1306 1305 1304 1302 1300 1299 1297 1295 1293 1292 1291 1290 1289 1288 1286 1285 1284 1282 1280 1279 1278 1276 1274 1272 1270 1269 1268 1267 1266 1266 1265 1265 1264 1265 1267 1268
1384 1382 1380 1378 1375 1373 1371 1368 1366 1364 1362 1360 1358 1355 1352 1349 1348 1349 1349 1347 1345 1343 1342 1341 1340 1339 1338 1335 1332 1330 1329 1327 1325 1324 1323 1322 1320 1319 1317 1316 1315 1314 1313 1310 1307 1306 1306 1305 1303 1302 1301 1300 1298 1297 1295 1293 1292 1290 1289 1287 1286 1286 1285 1283 1282 1280 1279 1277 1276 1274 1272 1271 1269 1267 1265 1264 1263 1262 1262 1261 1260 1260 1261 1262 1263
1381 1379 1377 1374 1371 1369 1367 1364 1362 1360 1357 1356 1353 1351 1349 1346 1342 1341 1341 1341 1340 1339 1337 1336 1334 1333 1332 1330 1328 1326 1325 1323 1321 1319 1317 1317 1316 1315 1312 1311 1311 1310 1307 1305 1304 1303 1302 1301 1300 1299 1297 1296 1294 1293 1291 1290 1289 1287 1286 1285 1283 1282 1281 1280 1279 1277 1276 1274 1273 1271 1269 1267 1265 1264 1262 1261 1260 1259 1259 1258 1257 1257 1258 1259 1259
1378 1376 1373 1371 1368 1365 1363 1361 1358 1356 1354 1352 1349 1347 1345 1343 1340 1337 1334 1333 1332 1332 1331 1331 1329 1327 1325 1324 1323 1321 1320 1318 1316 1314 1313 1313 1313 1310 1307 1306 1306 1305 1303 1302 1300 1299 1298 1297 1296 1295 1294 1292 1291 1289 1288 1287 1285 1284 1283 1282 1280 1279 1278 1277 1276 1274 1273 1271 1270 1268 1266 1264 1263 1260 1259 1257 1257 1256 1255 1254 1254 1255 1255 1256 1257
1375 1373 1370 1368 1365 1362 1359 1357 1355 1352 1350 1348 1346 1344 1341 1339 1337 1335 1332 1329 1327 1325 1324 1324 1323 1322 1320 1319 1317 1316 1315 1313 1311 1310 1310 1310 1308 1305 1302 1301 1301 1300 1299 1298 1297 1295 1294 1293 1292 1291 1290 1289 1287 1286 1285 1283 1282 1281 1280 1278 1277 1276 1275 1274 1273 1271 1270 1268 1267 1265 1263 1262 1260 1258 1256 1254 1254 1253 1252 1252 1252 1252 1253 1254 1255
1372 1369 1367 1364 1361 1358 1356 1353 1351 1349 1347 1344 1342 1340 1338 1335 1334 1331 1329 1327 1324 1321 1319 1318 1317 1317 1316 1315 1313 1312 1310 1309 1307 1306 1306 1306 1305 1301 1298 1297 1296 1295 1294 1294 1293 1292 1291 1289 1288 1287 1286 1285 1284 1283 1282 1280 1279 1278 1277 1276 1274 1273 1272 1271 1270 1268 1267 1266 1264 1263 1261 1259 1257 1255 1254 1252 1251 1250 1250 1249 1249 1250 1250 1252 1253
1368 1365 1363 1360 1358 1355 1352 1350 1347 1345 1343 1340 1338 1336 1334 1332 1330 1328 1326 1324 1321 1318 1316 1314 1312 1312 1311 1310 1310 1308 1306 1305 1303 1302 1302 1302 1300 1297 1295 1294 1293 1291 1290 1290 1289 1288 1287 1286 1285 1284 1283 1282 1281 1280 1278 1277 1276 1275 1274 1273 1272 1270 1269 1268 1267 1266 1264 1263 1262 1260 1258 1257 1255 1253 1251 1250 1249 1248 1248 1247 1247 1248 1248 1249 1250
1365 1362 1359 1357 1354 1351 1348 1346 1344 1342 1339 1337 1335 1333 1330 1328 1326 1324 1322 1320 1318 1316 1313 1311 1309 1308 1306 1306 1305 1304 1302 1300 1298 1297 1297 1296 1295 1293 1292 1290 1289 1288 1286 1286 1285 1284 1283 1282 1281 1280 1279 1278 1277 1276 1275 1274 1273 1272 1271 1270 1269 1268 1267 1265 1264 1263 1262 1260 1259 1258 1256 1254 1253 1251 1249 1248 1247 1246 1245 1245 1245 1246 1246 1247 1248
1361 1358 1356 1353 1351 1348 1345 1342 1340 1338 1335 1333 1331 1329 1327 1324 1322 1321 1319 1316 1314 1312 1310 1308 1306 1304 1303 1302 1301 1300 1298 1295 1293 1292 1291 1291 1290 1289 1288 1287 1285 1284 1283 1282 1281 1280 1279 1279 1278 1277 1276 1275 1274 1273 1272 1271 1270 1269 1268 1267 1266 1265 1264 1263 1262 1261 1259 1258 1257 1255 1254 1252 1250 1249 1248 1246 1245 1244 1243 1243 1244 1244 1244 1245 1245
1357 1355 1352 1350 1347 1345 1342 1339 1336 1334 1331 1329 1327 1325 1323 1320 1319 1317 1315 1313 1311 1309 1307 1305 1303 1301 1300 1299 1298 1296 1294 1292 1290 1289 1288 1287 1286 1285 1284 1283 1282 1281 1279 1279 1278 1277 1276 1275 1274 1274 1273 1272 1271 1270 1269 1268 1267 1266 1266 1265 1263 1262 1261 1260 1259 1258 1257 1256 1254 1253 1252 1250 1248 1247 1246 1244 1243 1243 1242 1241 1242 1242 1242 1242 1243
1354 1351 1349 1346 1344 1341 1338 1335 1333 1330 1328 1325 1323 1321 1319 1317 1315 1313 1311 1309 1307 1305 1303 1301 1299 1298 1297 1296 1295 1294 1292 1289 1288 1287 1285 1284 1282 1281 1280 1279 1278 1277 1276 1275 1274 1273 1272 1271 1271 1270 1269 1269 1268 1267 1266 1265 1265 1264 1263 1262 1261 1260 1259 1258 1257 1256 1254 1253 1252 1251 1250 1248 1247 1245 1244 1242 1241 1241 1240 1239 1239 1239 1239 1240 1240
1350 1347 1345 1343 1340 1337 1334 1332 1329 1327 1324 1322 1319 1317 1315 1313 1311 1309 1308 1306 1304 1302 1299 1297 1295 1294 1293 1292 1291 1290 1288 1286 1284 1283 1281 1280 1279 1278 1276 1276 1275 1273 1272 1271 1270 1269 1268 1268 1267 1267 1266 1265 1265 1264 1263 1262 1262 1261 1260 1259 1258 1257 1256 1256 1255 1253 1252 1251 1250 1249 1248 1247 1245 1243 1242 1241 1239 1239 1238 1237 1237 1237 1237 1237 1238
1347 1344 1341 1339 1336 1334 1331 1328 1325 1323 1321 1318 1316 1314 1312 1310 1308 1306 1304 1302 1300 1298 1296 1293 1291 1290 1289 1287 1287 1285 1284 1282 1280 1279 1277 1276 1275 1274 1273 1272 1271 1270 1269 1268 1267 1266 1265 1264 1263 1263 1263 1262 1262 1261 1260 1259 1259 1258 1257 1256 1255 1255 1254 1253 1252 1251 1250 1249 1248 1247 1246 1245 1243 1242 1241 1239 1238 1237 1236 1236 1235 1235 1235 1235 1236
1343 1341 1338 1335 1332 1330 1327 1324 1322 1319 1317 1314 1312 1310 1308 1306 1304 1302 1300 1298 1296 1294 1292 1289 1288 1286 1284 1283 1282 1281 1280 1278 1277 1275 1274 1273 1271 1270 1269 1268 1267 1266 1265 1264 1263 1263 1261 1261 1260 1260 1259 1259 1259 1258 1257 1256 1256 1255 1254 1253 1253 1252 1252 1251 1250 1249 1248 1247 1246 1245 1244 1243 1242 1240 1239 1238 1237 1236 1235 1234 1234 1233 1233 1233 1234
1340 1337 1334 1331 1329 1326 1323 1321 1318 1316 1313 1311 1308 1306 1304 1303 1300 1298 1296 1294 1292 1290 1288 1286 1284 1283 1281 1279 1278 1277 1276 1274 1273 1272 1270 1269 1268 1267 1266 1265 1264 1263 1262 1261 1260 1259 1258 1257 1257 1256 1256 1256 1255 1255 1254 1253 1253 1252 1252 1251 1250 1249 1249 1248 1247 1247 1246 1245 1244 1243 1242 1241 1240 1239 1238 1236 1235 1234 1233 1233 1232 1232 1232 1232 1232
1337 1334 1331 1328 1325 1322 1320 1317 1315 1312 1310 1307 1305 1302 1301 1299 1296 1295 1293 1290 1288 1286 1284 1282 1281 1279 1277 1276 1275 1273 1272 1271 1269 1268 1267 1266 1265 1264 1263 1262 1261 1260 1258 1257 1256 1255 1255 1254 1253 1253 1252 1252 1252 1252 1251 1250 1250 1250 1249 1248 1248 1247 1247 1246 1245 1245 1244 1243 1242 1241 1240 1239 1239 1238 1237 1235 1234 1233 1232 1232 1231 1231 1231 1230 1230
1333 1330 1327 1325 1322 1319 1316 1314 1311 1309 1306 1304 1302 1299 1297 1295 1293 1291 1289 1286 1285 1283 1280 1279 1277 1275 1274 1272 1271 1270 1268 1267 1266 1265 1264 1262 1261 1260 1259 1258 1258 1256 1255 1254 1253 1252 1251 1251 1250 1249 1249 1249 1248 1248 1248 1247 1247 1247 1246 1246 1245 1245 1244 1244 1243 1243 1242 1242 1241 1240 1239 1238 1237 1236 1235 1234 1234 1233 1232 1231 1230 1230 1230 1229 1229
1330 1327 1324 1322 1319 1316 1313 1311 1308 1305 1303 1301 1298 1296 1294 1291 1289 1287 1284 1282 1281 1279 1277 1275 1273 1272 1270 1269 1267 1266 1265 1264 1262 1261 1260 1259 1258 1257 1256 1255 1254 1253 1252 1251 1250 1249 1248 1248 1247 1246 1246 1245 1245 1245 1245 1244 1244 1244 1243 1243 1243 1242 1242 1242 1241 1240 1240 1239 1239 1238 1237 1236 1235 1235 1234 1233 1233 1232 1231 1230 1230 1229 1229 1228 1228
1327 1324 1321 1319 1316 1313 1310 1307 1305 1302 1300 1297 1295 1292 1290 1288 1285 1283 1281 1279 1277 1275 1273 1271 1270 1268 1267 1265 1264 1263 1262 1260 1259 1258 1257 1256 1255 1254 1253 1252 1251 1250 1249 1248 1247 1246 1245 1244 1244 1243 1243 1242 1242 1242 1242 1242 1241 1241 1241 1241 1240 1240 1240 1239 1239 1238 1238 1237 1237 1236 1235 1235 1234 1234 1233 1232 1232 1231 1230 1229 1229 1228 1228 1228 1228
1325 1322 1318 1316 1313 1310 1307 1304 1302 1299 1297 1294 1291 1289 1286 1284 1281 1279 1277 1275 1273 1271 1270 1268 1266 1265 1263 1262 1260 1259 1258 1257 1256 1255 1254 1253 1252 1251 1250 1249 1248 1247 1246 1245 1244 1243 1242 1241 1241 1240 1240 1239 1239 1239 1239 1239 1239 1238 1238 1238 1238 1238 1237 1237 1236 1236 1236 1235 1235 1234 1234 1233 1233 1232 1232 1231 1231 1230 1229 1229 1228 1228 1228 1227 1227
1322 1319 1316 1313 1310 1307 1304 1301 1298 1296 1293 1291 1288 1285 1283 1280 1278 1276 1273 1271 1269 1267 1266 1264 1263 1261 1260 1258 1257 1256 1255 1254 1253 1251 1250 1250 1249 1248 1247 1246 1245 1244 1243 1242 1241 1240 1239 1238 1238 1237 1237 1236 1236 1236 1236 1236 1236 1236 1236 1236 1235 1235 1235 1235 1234 1234 1234 1233 1233 1232 1232 1231 1231 1231 1231 1230 1230 1229 1229 1228 1228 1227 1227 1227 1227